This is the latest recevied weather packets stored in our database for station/object N4WFF. If no packets are shown the sender has not sent any weather packets the latest 10 day(s).
| Time | Temp. | Humidity | Pressure | Rain* | Wind** | Luminosity | Snow |
|---|---|---|---|---|---|---|---|
| 1777067155 | 28.33° C | 48% | 1010.5 hPa | 0 mm | - | 408 W/m² | - |
| 1777066856 | 28.33° C | 48% | 1010.4 hPa | 0 mm | - | 290 W/m² | - |
| 1777066556 | 28.33° C | 47% | 1010.4 hPa | 0 mm | - | 322 W/m² | - |
| 1777066256 | 28.33° C | 48% | 1010.5 hPa | 0 mm | - | 318 W/m² | - |
| 1777065956 | 28.33° C | 48% | 1010.5 hPa | 0 mm | - | 430 W/m² | - |
| 1777065656 | 27.78° C | 49% | 1010.5 hPa | 0 mm | - | 323 W/m² | - |
| 1777065356 | 28.33° C | 48% | 1010.6 hPa | 0 mm | - | 156 W/m² | - |
| 1777065055 | 28.33° C | 47% | 1010.5 hPa | 0 mm | - | 188 W/m² | - |
| 1777064755 | 28.89° C | 46% | 1010.6 hPa | 0 mm | - | 585 W/m² | - |
| 1777064455 | 28.33° C | 47% | 1010.7 hPa | 0 mm | - | 496 W/m² | - |
| 1777064159 | 28.89° C | 47% | 1010.8 hPa | 0 mm | - | 435 W/m² | - |
| 1777063856 | 29.44° C | 45% | 1010.8 hPa | 0 mm | - | 510 W/m² | - |
| 1777063555 | 29.44° C | 44% | 1010.9 hPa | 0 mm | - | 692 W/m² | - |
| 1777063257 | 28.89° C | 44% | 1010.9 hPa | 0 mm | - | 660 W/m² | - |
| 1777062955 | 28.89° C | 45% | 1011 hPa | 0 mm | - | 679 W/m² | - |
| 1777062655 | 28.33° C | 46% | 1011.1 hPa | 0 mm | - | 717 W/m² | - |
| 1777062359 | 27.78° C | 47% | 1011.2 hPa | 0 mm | - | 708 W/m² | - |
| 1777062056 | 27.78° C | 48% | 1011.2 hPa | 0 mm | - | 443 W/m² | - |
| 1777061755 | 27.78° C | 48% | 1011.3 hPa | 0 mm | - | 236 W/m² | - |
| 1777061456 | 27.78° C | 47% | 1011.4 hPa | 0 mm | - | 313 W/m² | - |
* Rain latest hour (hover to see other rain measurements)
** Current wind speed in m/s (hover to see current wind gust speed)